Torna al catalogo

COSMOS 2276

GLONASS

LostNavigazioneMEO
NORAD 23043·PAYLOAD·🇷🇺 Russia

Lanciato Apr 11, 1994 da Baikonur Cosmodrome

Loading…

Prossimi Passaggi (prossime 24 ore)

TLE

ObsoletoSource: Space-Track

Epoca: Aug 6, 2026, 03:59 UTC

1 23043U 94021A   26218.16604872 -.00000031  00000-0  00000+0 0  9995
2 23043  63.9570 299.0221 0021210 189.0008 232.8408  2.13099426251305

Traccia COSMOS 2276 in tempo reale con AllMySat

Download on the App Store